TimeCDT,TemperatureF,Dew PointF,Humidity,Sea Level PressureIn,VisibilityMPH,Wind Direction,Wind SpeedMPH,Gust SpeedMPH,PrecipitationIn,Events,Conditions,WindDirDegrees,DateUTC
12:53 AM,75.9,71.1,85,30.01,9.0,East,3.5,-,N/A,,Clear,80,2013-06-23 05:53:00
1:53 AM,75.9,71.1,85,30.01,10.0,East,3.5,-,N/A,,Clear,100,2013-06-23 06:53:00
2:53 AM,77.0,71.1,82,29.99,10.0,Variable,3.5,-,N/A,,Clear,0,2013-06-23 07:53:00
3:53 AM,75.9,71.1,85,30.00,10.0,Calm,Calm,-,N/A,,Clear,0,2013-06-23 08:53:00
4:53 AM,75.9,71.1,85,30.00,10.0,Calm,Calm,-,N/A,,Clear,0,2013-06-23 09:53:00
5:53 AM,75.9,71.1,85,30.00,9.0,ESE,4.6,-,N/A,,Scattered Clouds,110,2013-06-23 10:53:00
6:53 AM,75.9,71.1,85,30.02,7.0,SE,4.6,-,N/A,,Mostly Cloudy,130,2013-06-23 11:53:00
7:53 AM,78.1,72.0,81,30.03,8.0,ESE,4.6,-,N/A,,Clear,120,2013-06-23 12:53:00
8:53 AM,82.0,72.0,71,30.04,10.0,SSW,4.6,-,N/A,,Clear,210,2013-06-23 13:53:00
9:53 AM,86.0,72.0,63,30.04,10.0,SW,6.9,-,N/A,,Clear,220,2013-06-23 14:53:00
10:53 AM,87.1,71.1,59,30.04,10.0,SSW,10.4,-,N/A,,Partly Cloudy,210,2013-06-23 15:53:00
11:53 AM,90.0,70.0,52,30.03,10.0,SSW,6.9,-,N/A,,Partly Cloudy,200,2013-06-23 16:53:00
12:53 PM,89.1,69.1,52,30.02,10.0,SW,4.6,-,N/A,,Mostly Cloudy,220,2013-06-23 17:53:00
1:53 PM,91.9,68.0,45,30.01,10.0,SSW,5.8,-,N/A,,Partly Cloudy,200,2013-06-23 18:53:00
2:53 PM,91.9,66.9,44,30.00,10.0,South,5.8,-,N/A,,Scattered Clouds,190,2013-06-23 19:53:00
3:53 PM,93.0,66.9,42,29.98,10.0,SSW,8.1,-,N/A,,Clear,210,2013-06-23 20:53:00
4:53 PM,91.9,66.9,44,29.97,10.0,South,9.2,16.1,N/A,,Partly Cloudy,190,2013-06-23 21:53:00
5:53 PM,91.0,66.9,45,29.96,10.0,South,6.9,-,N/A,,Clear,190,2013-06-23 22:53:00
6:53 PM,90.0,66.9,46,29.96,10.0,South,4.6,-,N/A,,Clear,190,2013-06-23 23:53:00
7:53 PM,87.1,69.1,55,29.97,10.0,South,5.8,-,N/A,,Clear,190,2013-06-24 00:53:00
8:53 PM,84.9,70.0,61,29.99,10.0,Calm,Calm,-,N/A,,Clear,0,2013-06-24 01:53:00
9:53 PM,82.9,70.0,65,29.99,10.0,South,3.5,-,N/A,,Clear,170,2013-06-24 02:53:00
10:53 PM,82.0,70.0,67,30.02,10.0,SSE,3.5,-,N/A,,Clear,150,2013-06-24 03:53:00
11:53 PM,81.0,71.1,72,30.02,10.0,Calm,Calm,-,N/A,,Clear,0,2013-06-24 04:53:00